KG1ZR Weather Reports


Display with metric or nautical units.
time (UTC)temp
F
wind
direction
speed
MPH
gust
MPH
rain 1hr
in
rain 24hr
in
rain mn
in
humidity
%
barometer
mb
20240612140522 64 52 1.0 5.0 0.00 0.01 0.01 86 1014.9
20240612135522 64 208 1.0 8.0 0.00 0.01 0.01 86 1014.9
20240612134020 64 69 3.0 8.0 0.00 0.01 0.01 86 1014.9
20240612133522 65 57 1.0 6.0 0.00 0.01 0.01 87 1014.9
20240612132018 64 20 1.0 4.0 0.00 0.01 0.01 87 1014.9
20240612131017 63 102 1.0 3.0 0.00 0.01 0.01 87 1015.0
20240612130516 63 140 1.0 3.0 0.00 0.01 0.01 88 1015.1
20240612125513 63 244 2.0 9.0 0.00 0.01 0.01 88 1015.0
20240612124513 63 188 3.0 10.0 0.00 0.01 0.01 89 1015.0
20240612123012 62 100 3.0 8.0 0.00 0.01 0.01 89 1014.9
20240612122012 61 96 3.0 7.0 0.00 0.01 0.01 89 1014.8
20240612121013 61 53 2.0 7.0 0.00 0.01 0.01 89 1014.8
20240612120513 61 26 2.0 7.0 0.00 0.01 0.01 89 1014.9
20240612115514 62 111 2.0 7.0 0.00 0.01 0.01 90 1014.7
20240612114012 62 30 3.0 7.0 0.00 0.01 0.01 91 1014.6
20240612113016 61 43 2.0 7.0 0.00 0.01 0.01 91 1014.4
20240612112010 60 67 2.0 4.0 0.00 0.01 0.01 91 1014.3
20240612111010 59 59 1.0 3.0 0.00 0.01 0.01 91 1014.3
20240612110010 58 214 0.0 1.0 0.00 0.01 0.01 91 1014.4
20240612105012 58 228 0.0 2.0 0.00 0.01 0.01 91 1014.3
20240612104511 57 53 1.0 3.0 0.00 0.01 0.01 91 1014.2
20240612103010 56 88 0.0 1.0 0.00 0.01 0.01 91 1014.3
20240612102008 56 176 0.0 1.0 0.00 0.01 0.01 91 1014.3
20240612101008 55 176 0.0 0.0 0.00 0.01 0.01 91 1014.2
20240612100008 54 338 0.0 0.0 0.00 0.01 0.01 91 1014.1
20240612095009 53 323 0.0 2.0 0.00 0.01 0.01 91 1014.2
20240612094008 53 311 0.0 2.0 0.00 0.01 0.01 91 1014.3
20240612093008 53 74 0.0 1.0 0.00 0.01 0.01 91 1014.3
20240612092012 53 5 0.0 0.0 0.00 0.01 0.01 91 1014.4
20240612092008 53 99 0.0 0.0 0.00 0.01 0.01 91 1014.3
20240612090007 53 5 0.0 1.0 0.00 0.01 0.01 91 1014.2
20240612085004 53 5 0.0 2.0 0.00 0.01 0.01 91 1014.3
20240612084001 53 5 0.0 2.0 0.00 0.01 0.01 91 1014.3
20240612083503 53 355 0.0 0.0 0.00 0.01 0.01 91 1014.3
20240612082001 53 355 0.0 0.0 0.00 0.01 0.01 91 1014.2
20240612081002 54 355 0.0 0.0 0.00 0.01 0.01 91 1014.1
20240612080001 53 355 0.0 0.0 0.00 0.01 0.01 91 1014.0
20240612075002 53 355 0.0 0.0 0.00 0.01 0.01 90 1014.0
20240612074503 53 355 0.0 0.0 0.00 0.01 0.01 91 1013.9
20240612073001 53 355 0.0 1.0 0.00 0.01 0.01 90 1013.9
20240612072001 54 355 0.0 1.0 0.00 0.01 0.01 90 1013.9
20240612071002 54 355 0.0 1.0 0.00 0.01 0.01 90 1013.8
20240612070002 54 355 0.0 1.0 0.00 0.01 0.01 90 1013.8
20240612065003 55 355 0.0 1.0 0.00 0.01 0.01 90 1013.8
20240612064002 55 355 0.0 0.0 0.00 0.01 0.01 90 1013.8
20240612063002 55 355 0.0 0.0 0.01 0.01 0.01 90 1013.8
20240612062002 55 355 0.0 0.0 0.01 0.01 0.01 90 1013.6
20240612061002 55 355 0.0 1.0 0.01 0.01 0.01 90 1013.6
20240612060000 56 355 0.0 1.0 0.01 0.01 0.00 90 1013.6
20240612055001 56 355 0.0 0.0 0.01 0.01 0.01 90 1013.5
20240612054504 56 355 0.0 0.0 0.01 0.01 0.01 90 1013.6
20240612053001 57 355 0.0 0.0 0.00 0.00 0.00 90 1013.6
20240612052001 57 355 0.0 0.0 0.00 0.00 0.00 90 1013.6
20240612051001 58 355 0.0 1.0 0.00 0.00 0.00 90 1013.6
20240612050001 58 355 0.0 1.0 0.00 0.00 0.00 90 1013.6
20240612045503 58 355 0.0 1.0 0.00 0.00 0.00 90 1013.6
20240612044000 58 355 0.0 1.0 0.00 0.00 0.00 90 1013.6
20240612043001 59 355 0.0 1.0 0.00 0.00 0.00 90 1013.8
20240612042002 59 355 0.0 0.0 0.00 0.00 0.00 90 1013.6
20240612041004 59 355 0.0 0.0 0.00 0.00 0.00 90 1013.6
20240612040002 59 355 0.0 0.0 0.00 0.00 0.00 90 1013.6
20240612035003 60 355 0.0 0.0 0.00 0.00 0.00 90 1013.6
20240612034001 60 355 0.0 0.0 0.00 0.00 0.00 90 1013.6
20240612033001 60 355 0.0 0.0 0.00 0.00 0.00 90 1013.5
20240612032001 60 355 0.0 1.0 0.00 0.00 0.00 90 1013.4
20240612031000 60 355 0.0 1.0 0.00 0.00 0.00 90 1013.4
20240612030002 60 355 0.0 1.0 0.00 0.00 0.00 89 1013.3
20240612025001 60 355 0.0 1.0 0.00 0.00 0.00 90 1013.2
20240612024502 61 355 0.0 1.0 0.00 0.00 0.00 90 1013.1
20240612023502 61 355 0.0 2.0 0.00 0.00 0.00 89 1013.1
20240612022003 61 355 1.0 2.0 0.00 0.00 0.00 89 1013.1
20240612021001 61 355 0.0 0.0 0.00 0.00 0.00 89 1013.3
20240612020502 62 355 0.0 0.0 0.00 0.00 0.00 89 1013.4
20240612015502 62 355 0.0 0.0 0.00 0.00 0.00 89 1013.4
20240612014000 62 355 0.0 1.0 0.00 0.00 0.00 88 1013.3
20240612013001 62 355 0.0 2.0 0.00 0.00 0.00 88 1013.1
20240612012501 63 355 0.0 2.0 0.00 0.00 0.00 87 1013.0
20240612011002 64 355 0.0 2.0 0.00 0.00 0.00 86 1013.0
20240612010001 64 355 0.0 1.0 0.00 0.00 0.00 85 1012.9
20240612005001 64 355 0.0 2.0 0.00 0.00 0.00 84 1012.8
20240612004504 65 55 0.0 3.0 0.00 0.00 0.00 83 1012.7
20240612003502 65 73 1.0 3.0 0.00 0.00 0.00 83 1012.7
20240612002003 65 79 0.0 2.0 0.00 0.00 0.00 82 1012.6
20240612001001 66 22 0.0 2.0 0.00 0.00 0.00 81 1012.5
20240612000001 66 335 1.0 4.0 0.00 0.00 0.00 78 1012.2
20240611235001 67 200 1.0 4.0 0.00 0.00 0.00 78 1012.0
20240611234502 67 211 1.0 4.0 0.00 0.00 0.00 78 1011.8
20240611233007 68 220 1.0 4.0 0.00 0.00 0.00 76 1011.6
20240611233001 67 184 1.0 3.0 0.00 0.00 0.00 77 1011.8
20240611231002 69 236 1.0 8.0 0.00 0.00 0.00 74 1011.6
20240611230006 69 201 3.0 8.0 0.00 0.00 0.00 73 1011.7
20240611225002 70 258 3.0 6.0 0.00 0.00 0.00 72 1011.6
20240611224001 70 236 3.0 6.0 0.00 0.00 0.00 73 1011.5
20240611223000 70 193 3.0 7.0 0.00 0.00 0.00 74 1011.5
20240611222001 70 181 4.0 7.0 0.00 0.00 0.00 75 1011.4
20240611221001 69 241 2.0 5.0 0.00 0.00 0.00 75 1011.2
20240611220001 69 194 2.0 5.0 0.00 0.00 0.00 76 1011.0
20240611215001 69 202 2.0 5.0 0.00 0.00 0.00 76 1011.0
20240611214001 69 182 2.0 5.0 0.00 0.00 0.00 75 1011.0
20240611213000 69 203 1.0 7.0 0.00 0.00 0.00 74 1010.9
20240611212502 69 196 3.0 7.0 0.00 0.00 0.00 73 1011.0
20240611211006 70 196 2.0 6.0 0.00 0.00 0.00 68 1011.0
20240611211001 70 175 3.0 7.0 0.00 0.00 0.00 71 1011.1
20240611205004 71 180 1.0 4.0 0.00 0.00 0.00 67 1011.0
20240611204000 72 147 1.0 6.0 0.00 0.00 0.00 66 1010.9
20240611203003 72 200 2.0 6.0 0.00 0.00 0.00 64 1010.9
20240611202002 73 92 2.0 5.0 0.00 0.00 0.00 63 1010.9
20240611201001 73 153 2.0 6.0 0.00 0.00 0.00 66 1010.9
20240611200000 73 121 3.0 7.0 0.00 0.00 0.00 62 1011.0
20240611194958 73 72 3.0 7.0 0.00 0.00 0.00 67 1010.9
20240611193959 73 185 2.0 6.0 0.00 0.00 0.00 63 1011.0
20240611192959 73 318 2.0 4.0 0.00 0.00 0.00 63 1011.1
20240611192459 73 78 4.0 9.0 0.00 0.00 0.00 62 1011.1
20240611190956 72 53 1.0 8.0 0.00 0.00 0.00 70 1011.1
20240611185955 72 288 1.0 5.0 0.00 0.00 0.00 67 1011.1
20240611184955 71 10 2.0 5.0 0.00 0.00 0.00 65 1011.1
20240611183952 71 74 2.0 6.0 0.00 0.00 0.00 65 1011.0
20240611183451 72 65 2.0 7.0 0.00 0.00 0.00 68 1011.1
20240611181949 72 72 3.0 7.0 0.00 0.00 0.00 67 1011.0
20240611180948 71 30 1.0 4.0 0.00 0.00 0.00 67 1010.9
20240611175949 71 63 2.0 8.0 0.00 0.00 0.00 64 1010.9
20240611174950 71 49 3.0 8.0 0.00 0.00 0.00 69 1010.7
20240611173949 71 5 2.0 11.0 0.00 0.00 0.00 70 1010.7
20240611172948 71 42 3.0 11.0 0.00 0.00 0.00 63 1010.5
20240611171947 71 121 3.0 7.0 0.00 0.00 0.00 68 1010.5
20240611171449 70 54 4.0 7.0 0.00 0.00 0.00 64 1010.6
20240611165948 71 42 3.0 7.0 0.00 0.00 0.00 66 1010.6
20240611164948 71 317 2.0 8.0 0.00 0.00 0.00 65 1010.7
20240611163944 70 109 3.0 10.0 0.00 0.00 0.00 68 1010.7
20240611162945 69 134 4.0 10.0 0.00 0.00 0.00 71 1010.8
20240611161945 69 61 3.0 12.0 0.00 0.00 0.00 71 1010.9
20240611160945 69 76 4.0 12.0 0.00 0.00 0.00 70 1011.0
20240611155945 68 76 2.0 8.0 0.00 0.00 0.00 73 1010.9
20240611154942 67 46 4.0 8.0 0.00 0.00 0.00 76 1010.9
20240611153943 67 63 3.0 7.0 0.00 0.00 0.00 75 1011.0
20240611152943 67 77 3.0 9.0 0.00 0.00 0.00 76 1011.0
20240611152443 66 54 4.0 9.0 0.00 0.00 0.00 75 1010.9
20240611152203 66 56 4.0 8.0 0.00 0.00 0.00 75 1010.9
20240611145941 67 52 3.0 8.0 0.00 0.00 0.00 75 1010.9
20240611144941 67 52 3.0 7.0 0.00 0.00 0.00 73 1010.8
20240611143941 67 44 2.0 8.0 0.00 0.00 0.00 74 1010.7
20240611142941 66 24 2.0 4.0 0.00 0.00 0.00 75 1010.6
20240611142442 66 79 2.0 8.0 0.00 0.00 0.00 74 1010.4